Tracking 28790 objects as of 19-Apr-2024
HD Live streaming from Space Station
objects crossing your sky now

STARLINK-1510

Track STARLINK-1510 now!
10-day predictions
STARLINK-1510 is classified as:


NORAD ID: 45784
Int'l Code: 2020-038BG
Perigee: 553.3 km
Apogee: 555.5 km
Inclination: 53.1 °
Period: 95.6 minutes
Semi major axis: 6925 km
RCS: Unknown
Launch date: June 13, 2020
Source: United States (US)
Launch site: AIR FORCE EASTERN TEST RANGE (AFETR)
Your satellite tracking list
Your tracking list is empty




NASA's NSSDC Master Catalog

Two Line Element Set (TLE):
1 45784U 20038BG  24110.13852088 -.00001019  00000-0 -49551-4 0  9995
2 45784  53.0557  52.1271 0001549 101.3640 258.7523 15.06383545213746
Source of the keplerian elements: AFSPC